Starlink 33642

operational
NORAD ID: 63978 Int'l Des: 2025-099 Owner: SPXS Country: US Constellation: starlink
LEOCIRCULAR

About Starlink 33642

Description loading...

Live Position

Loading 3D Globe...

Upcoming Passes

Altitude History

Altitude vs Time

uPlot chart will show altitude changes over time

Two-Line Element Set

1 63978U 25099AC 26063.43667975 .00037045 00000-0 13483-2 0 9992
2 63978 43.0030 202.3502 0001545 239.7080 120.3619 15.27595571 46484
Epoch: Mar 4, 2026 • Age: 19 hours

Current Status

Altitude 488.3 km
Velocity 7.62 km/s
Sub-Earth Point -25.60°S, 40.77°W
Launch Date May 13, 2025
Age 0.8 years
Type internet

Technical Details

Classification Payload
Mass 575.00 kg
Dry Mass 530.00 kg
Total Mass 575.00 kg
Length 0.30 m
Diameter 4.10 m
Span 29.00 m
Shape Box + pan
Manufacturer SPXS
Bus Type Starlink V2MO
Phase Status In Orbit
Owner/State SPXS/US

Large Constellations

Loading constellations...